OBJECT B, 60013

Orbit data source: Space-Track

You're viewing an Uncataloged Satellite

Recently launched and/or uncataloged satellites may have evolving metadata. Metadata may include but not limited to: Owner, Maufacturer, Bus, Motor, and Mission.

OBJECT B, 60013 is a satellite owned by Tsinghua (CN) in SSO that was launched on Thu, 06 Jun 2024 UTC via a GUSHENXING 1 launch vehicle from the Jiuquan Satellite Launch Center, China (JSC). Unknown objects in Earth's orbit typically refer to objects detected orbiting the Earth but have not yet been identified or cataloged. These objects could be anything from previously untracked satellites, spent rocket stages, debris from satellite collisions, or even natural meteoroids temporarily captured by Earth's gravity.

Loading next visibility...
Identifier
60013, 2024-110B
Orbit
SSO
Last TLE update
5 hours ago
Origin
Manufacturer
Tsinghua
Mission
Operational spacecraft
Bus & Motor
NAXING, Unknown motor
Mass
20 kg wet, 20 kg dry
Launch date (UTC)
2024-06-06 (1 year ago)
Launch vehicle
GUSHENXING 1
Launch site
Jiuquan Satellite Launch Center, China (JSC)
Object type
Unknown
Shape & HBR
Unknown
Radar Cross Section
Medium (>0.1 m² and <1 m²)

Expand to show TLE details & history

TLE from 5 hours ago
0 OBJECT B
1 60013U 24110B   25182.88088166  .00005633  00000-0  29663-3 0  9997
2 60013  97.5832 272.8308 0013320  34.8468 325.3634 15.15946404 59007
Epoch: 2025-07-01T21:08Z
TLE epoch observation values (Epoch: 2025-07-01T21:08:28.175Z)
Latitude
-0.00001°
Longitude
35.54343°
Altitude
513.631 km
Speed
7.611 km/s
True Right ascension
18h 11m 19s
True Declination
0° 00' 00"
Sunlit
Object was in full shadow at epoch
Visualization orbit readout
Latitude
67.78393°
Longitude
-125.32304°
Altitude
527.751 km
Speed
7.607 km/s
Apparent Right ascension
03h 47m 47s
Apparent Declination
21° 16' 43"
Sunlit
Object is in daylight
Visualization observer readout
Local Sidereal Time
14:03:54
Azimuth
333.43° NNW
Elevation
-24.184°
Doppler factor
1
Orbital elements
Apogee altitude
524.268 km
Perigee altitude
505.904 km
Semi-major axis
6,893.223 km
Eccentricity
0.00133
Inclination
97.5832°
RAAN
272.8308°
Arg. of periapsis
34.8468°
True anomaly
Unknown
Mean anomaly
325.3634°
Eccentric anomaly
Unknown
Mean motion
3.79236 °/min
Orbital period
94.93 mins
BSTAR
0.00029663
Loading maneuver chart data...
Loading SW <> Apogee altitude chart data...
Loading historical data...
Loading historical data...
Loading historical data...
Loading historical data...
Loading historical data...
Loading historical data...
Loading historical data...
Other satellites on launch #110 in the year 2024 (2024-06-06 UTC)

OBJECT B Visibility forecast

Observer location: undefined°, undefined°

Span
Click to sort rows by Start time (UTC) header in descending order
Start Az.
Max El. time (UTC)
Max El. Az.
Max El.
End time (UTC)
End Az.
4 mins2025-07-02 05:12:50.536Z111.212° ESE2025-07-02 05:14:50.536Z73.915° E19.084°2025-07-02 05:16:50.536Z32.758° NE
4 mins2025-07-02 06:47:50.536Z235.582° WSW2025-07-02 06:48:50.536Z259.756° W21.959°2025-07-02 06:51:50.536Z317.579° NNW
4 mins2025-07-02 18:19:50.536Z59.13° ENE2025-07-02 18:20:50.536Z85.277° E26.324°2025-07-02 18:23:50.536Z153.851° SSE
|